[[{"header":{"parameterUnit":"m.s-1","parameterCategory":1,"la1":30.2991,"la2":30.254,"lo1":-89.0895,"lo2":-89.0444,"dy":0.0017,"dx":0.0017,"nx":28,"ny":28,"refTime":"2025-09-05T21:00:00:Z","depth":0,"parameterNumber":2,"parameterNumberName":"U-component_of_WINDS"},"data":[0,0,0,0,0,0,0,0,0,0,0,0,0,0,0,0,0,0,0,0,0,0,0,0,0,0,0,0,0,0,0,0,0,0,0,0,0,0,0,0,0,0,0,0,0,0,0,0,0,0,0,0,0,0,0,0,0,0,-0.5101,-0.51,0,-0.4974,-0.4972,-0.4971,-0.4895,-0.4895,-0.4894,-0.4894,-0.476,-0.4757,-0.4754,0,0,0,0,0,0,0,0,0,0,0,0,0,-0.5276,-0.5273,-0.5102,-0.51,-0.5098,-0.4974,-0.4972,-0.497,-0.4895,-0.4895,-0.4894,-0.4894,-0.4761,-0.4757,-0.4753,0,0,0,0,0,0,0,0,0,0,0,0,0,-0.5179,-0.5272,-0.5102,-0.5046,-0.504,-0.4974,-0.4972,-0.497,-0.4895,-0.4895,-0.4894,-0.4894,-0.4762,-0.4758,-0.4753,-0.4732,0,0,-0.4738,-0.4736,0,0,0,0,0,0,0,0,-0.5185,-0.5173,-0.5056,-0.505,-0.5042,-0.495,-0.4984,-0.489,-0.4895,-0.495,-0.4894,-0.4894,-0.4823,-0.4813,-0.479,-0.4726,-0.472,-0.4737,-0.4734,-0.4732,-0.4731,0,0,0,0,0,0,0,-0.5192,-0.5178,-0.5051,-0.5054,-0.5046,-0.5026,-0.5011,-0.4966,-0.4891,-0.4945,-0.4939,-0.4925,-0.482,-0.4795,-0.4787,-0.4718,-0.4737,-0.4733,-0.473,-0.4728,-0.4628,-0.4628,0,0,0,0,0,0,-0.5208,-0.5184,-0.5055,-0.5047,-0.5114,-0.5023,-0.5007,-0.498,-0.4891,-0.4877,-0.4926,-0.4922,-0.4804,-0.4792,-0.4782,-0.475,-0.4732,-0.4728,-0.4725,-0.4627,-0.4628,-0.4628,0,0,0,0,0,0,-0.5212,-0.5197,-0.506,-0.5114,-0.5095,-0.502,-0.4991,-0.4978,-0.4953,-0.4877,-0.4862,-0.4915,-0.4803,-0.4789,-0.4745,-0.4745,-0.4726,-0.4721,-0.4627,-0.4627,-0.4628,-0.4689,0,0,0,0,0,0,-0.5217,-0.5199,-0.5192,-0.5114,-0.5092,-0.5027,-0.4991,-0.4976,-0.4945,-0.494,-0.4863,-0.485,-0.4802,-0.4752,-0.474,-0.4738,-0.4717,-0.4627,-0.4627,-0.4628,-0.4687,-0.4691,-0.4695,0,0,0,0,0,-0.5224,-0.5214,-0.5192,-0.5176,-0.5082,-0.5027,-0.5014,-0.496,-0.4946,-0.4937,-0.4887,-0.4852,-0.4747,-0.4749,-0.4734,-0.473,-0.4626,-0.4627,-0.4628,-0.4685,-0.469,-0.4695,0,0,0,0,0,0,-0.5292,-0.5203,-0.5177,-0.5142,-0.5093,-0.5015,-0.5002,-0.4968,-0.4921,-0.4918,-0.4851,-0.4834,-0.4797,-0.4759,-0.4762,-0.4704,-0.4682,-0.468,-0.4731,-0.4736,-0.474,-0.475,-0.4713,0,0,0,0,0,-0.5304,-0.5268,-0.5191,-0.5167,-0.5144,-0.5077,-0.5051,-0.5014,-0.496,-0.4938,-0.4885,-0.4833,-0.4788,-0.4759,-0.4714,-0.468,-0.4661,-0.467,-0.4675,-0.4679,-0.4677,-0.4655,-0.4658,-0.463,-0.463,-0.463,0,0,-0.5326,-0.5273,-0.5254,-0.518,-0.5137,-0.51,-0.506,-0.5023,-0.4995,-0.4932,-0.4888,-0.4847,-0.4784,-0.4745,-0.4725,-0.4712,-0.4681,-0.4679,-0.4683,-0.468,-0.4656,-0.4659,-0.4661,-0.463,-0.463,-0.463,0,0,-0.5349,-0.5305,-0.528,-0.5238,-0.5174,-0.5129,-0.5124,-0.5049,-0.502,-0.4974,-0.4926,-0.489,-0.4814,-0.4771,-0.4739,-0.4743,-0.4708,-0.4729,-0.4753,-0.4732,-0.4734,-0.4735,-0.4736,-0.4737,-0.4728,-0.4728,-0.4728,0,-0.5385,-0.5329,-0.5271,-0.5237,-0.5204,-0.5146,-0.5119,-0.5081,-0.5005,-0.4983,-0.497,-0.4872,-0.4826,-0.4775,-0.4776,-0.4752,-0.4742,-0.4738,-0.4738,-0.4739,-0.474,-0.474,-0.474,-0.4731,-0.4731,-0.4731,-0.473,0,-0.5375,-0.5337,-0.5324,-0.5253,-0.5219,-0.5188,-0.5125,-0.5097,-0.5062,-0.5018,-0.4971,-0.4913,-0.4854,-0.4838,-0.4804,-0.4782,-0.4776,-0.4751,-0.4728,-0.4747,-0.4745,-0.4744,-0.4736,-0.4735,-0.4734,-0.4733,0,0,-0.5439,-0.5335,-0.5332,-0.5298,-0.5222,-0.519,-0.5156,-0.5099,-0.5076,-0.5024,-0.4993,-0.4929,-0.4905,-0.4869,-0.4828,-0.481,-0.4815,-0.4787,-0.4784,-0.4794,-0.4786,-0.4805,-0.4806,-0.4791,-0.4791,-0.479,-0.4791,0,-0.545,-0.5388,-0.5334,-0.529,-0.5253,-0.5196,-0.5166,-0.5115,-0.5072,-0.5033,-0.4985,-0.4941,-0.4913,-0.4891,-0.487,-0.4819,-0.4812,-0.4818,-0.476,-0.4758,-0.4778,-0.4805,-0.4825,-0.4829,-0.479,-0.479,-0.479,0,-0.5455,-0.5407,-0.536,-0.5286,-0.5269,-0.5243,-0.5185,-0.5148,-0.5089,-0.5059,-0.5018,-0.4975,-0.4933,-0.4914,-0.4856,-0.4861,-0.4833,-0.4804,-0.4803,-0.4795,-0.4776,-0.4798,-0.4828,-0.4829,-0.4788,-0.4788,-0.4788,0,-0.5506,-0.5429,-0.5391,-0.5363,-0.5277,-0.5259,-0.5222,-0.5162,-0.513,-0.5079,-0.5057,-0.5002,-0.4971,-0.4928,-0.487,-0.4862,-0.4817,-0.4794,-0.479,-0.4792,-0.4784,-0.4786,-0.4811,-0.4767,-0.4767,-0.4767,-0.4767,0,-0.5524,-0.5498,-0.5412,-0.5389,-0.5356,-0.5293,-0.5262,-0.522,-0.5166,-0.5132,-0.5078,-0.5047,-0.4973,-0.4932,-0.4886,-0.4844,-0.483,-0.4804,-0.4792,-0.4809,-0.4812,-0.479,-0.4789,-0.4767,-0.4767,-0.4767,-0.4767,0,-0.5576,-0.5518,-0.5472,-0.5393,-0.5373,-0.5352,-0.5284,-0.5257,-0.5211,-0.5168,-0.5154,-0.5081,-0.503,-0.4968,-0.4897,-0.4866,-0.4828,-0.481,-0.4849,-0.4842,-0.4842,-0.4843,-0.4854,-0.4852,-0.481,-0.4811,-0.4811,0,-0.5592,-0.557,-0.5489,-0.5463,-0.5427,-0.5385,-0.5352,-0.5289,-0.5257,-0.5186,-0.5167,-0.5112,-0.5065,-0.4985,-0.4925,-0.4869,-0.485,-0.4857,-0.4841,-0.4858,-0.4849,-0.4851,-0.4848,-0.4862,-0.4863,-0.4863,-0.4864,0,-0.5626,-0.5598,-0.5554,-0.5499,-0.5461,-0.5415,-0.5366,-0.5346,-0.5272,-0.5238,-0.5186,-0.5149,-0.5075,-0.5021,-0.4957,-0.4916,-0.4877,-0.4869,-0.4865,-0.4882,-0.4905,-0.4892,-0.486,-0.4869,-0.4869,-0.4868,-0.4868,-0.4868,-0.566,-0.5637,-0.5576,-0.5528,-0.5484,-0.5439,-0.541,-0.536,-0.5316,-0.5252,-0.5216,-0.5164,-0.5102,-0.5012,-0.4973,-0.493,-0.4916,-0.4911,-0.4909,-0.4909,-0.4914,-0.4912,-0.4918,-0.4918,-0.4918,-0.4917,-0.4917,0,-0.5691,-0.5648,-0.5605,-0.5538,-0.5499,-0.5466,-0.5409,-0.5379,-0.5334,-0.528,-0.5234,-0.5172,-0.5118,-0.5053,-0.4994,-0.4972,-0.4952,-0.4959,-0.496,-0.4951,-0.493,-0.4939,-0.4976,-0.4976,-0.4976,-0.4976,-0.4976,-0.4975,-0.5703,-0.5662,-0.5626,-0.5563,-0.5519,-0.5469,-0.5439,-0.5396,-0.5353,-0.5287,-0.5242,-0.52,-0.514,-0.5076,-0.5024,-0.5006,-0.4987,-0.4999,-0.4975,-0.4957,-0.4952,-0.4948,-0.4956,-0.4995,-0.4995,-0.4999,-0.4999,-0.4999]},{"header":{"parameterUnit":"m.s-1","parameterCategory":1,"la1":30.2991,"la2":30.254,"lo1":-89.0895,"lo2":-89.0444,"dy":0.0017,"dx":0.0017,"nx":28,"ny":28,"refTime":"2025-09-05T21:00:00:Z","depth":0,"parameterNumber":3,"parameterNumberName":"V-component_of_WINDS"},"data":[0,0,0,0,0,0,0,0,0,0,0,0,0,0,0,0,0,0,0,0,0,0,0,0,0,0,0,0,0,0,0,0,0,0,0,0,0,0,0,0,0,0,0,0,0,0,0,0,0,0,0,0,0,0,0,0,0,0,-2.3835,-2.3835,0,-2.3825,-2.3825,-2.3825,-2.3885,-2.3887,-2.3889,-2.3891,-2.3873,-2.3871,-2.3869,0,0,0,0,0,0,0,0,0,0,0,0,0,-2.3903,-2.3901,-2.3835,-2.3835,-2.3835,-2.3825,-2.3825,-2.3825,-2.3885,-2.3887,-2.3889,-2.3891,-2.3874,-2.3871,-2.3869,0,0,0,0,0,0,0,0,0,0,0,0,0,-2.3881,-2.3901,-2.3835,-2.3864,-2.3867,-2.3825,-2.3825,-2.3825,-2.3885,-2.3887,-2.389,-2.3892,-2.3874,-2.3871,-2.3868,-2.3797,0,0,-2.3859,-2.3857,0,0,0,0,0,0,0,0,-2.3882,-2.3878,-2.386,-2.3862,-2.3865,-2.386,-2.3842,-2.3815,-2.3884,-2.3878,-2.3891,-2.3894,-2.3866,-2.3864,-2.3856,-2.3796,-2.3795,-2.3858,-2.3857,-2.3855,-2.3854,0,0,0,0,0,0,0,-2.3883,-2.3879,-2.3831,-2.386,-2.3863,-2.3876,-2.3876,-2.3837,-2.3857,-2.3878,-2.3883,-2.3881,-2.3868,-2.3859,-2.3856,-2.3795,-2.3859,-2.3856,-2.3854,-2.3853,-2.3679,-2.3676,0,0,0,0,0,0,-2.3882,-2.388,-2.3831,-2.3831,-2.388,-2.3873,-2.3873,-2.3858,-2.3858,-2.386,-2.3879,-2.3884,-2.3863,-2.3859,-2.3855,-2.3774,-2.3855,-2.3852,-2.385,-2.3682,-2.3678,-2.3675,0,0,0,0,0,0,-2.3883,-2.3877,-2.3832,-2.3857,-2.3852,-2.3869,-2.3852,-2.3857,-2.3848,-2.3858,-2.3861,-2.3866,-2.3865,-2.386,-2.3812,-2.3774,-2.3851,-2.3848,-2.3685,-2.3681,-2.3677,-2.3609,0,0,0,0,0,0,-2.3885,-2.3877,-2.3851,-2.3856,-2.385,-2.379,-2.385,-2.3855,-2.3843,-2.385,-2.3847,-2.3849,-2.3866,-2.3816,-2.3809,-2.3771,-2.3846,-2.3688,-2.3683,-2.3678,-2.3614,-2.3603,-2.3593,0,0,0,0,0,-2.3887,-2.383,-2.3849,-2.3843,-2.3818,-2.3787,-2.3784,-2.3807,-2.384,-2.3813,-2.382,-2.3849,-2.3779,-2.3811,-2.3803,-2.3764,-2.3691,-2.3684,-2.3678,-2.3619,-2.3605,-2.3593,0,0,0,0,0,0,-2.3816,-2.3831,-2.3852,-2.3795,-2.379,-2.3798,-2.3765,-2.3791,-2.3774,-2.3781,-2.3808,-2.3807,-2.3755,-2.3754,-2.3789,-2.3696,-2.3741,-2.3732,-2.3698,-2.3685,-2.3674,-2.3676,-2.3843,0,0,0,0,0,-2.3795,-2.377,-2.3783,-2.3732,-2.3728,-2.3747,-2.3734,-2.3753,-2.3748,-2.3745,-2.3748,-2.374,-2.3717,-2.3701,-2.3679,-2.3615,-2.3616,-2.3584,-2.3573,-2.3564,-2.3557,-2.3525,-2.3512,-2.3655,-2.3655,-2.3655,0,0,-2.3748,-2.3753,-2.3735,-2.3718,-2.3716,-2.3689,-2.3744,-2.3713,-2.3693,-2.3739,-2.3696,-2.3698,-2.3691,-2.3636,-2.3611,-2.3633,-2.3518,-2.3556,-2.3549,-2.3547,-2.3518,-2.3504,-2.3492,-2.3651,-2.3652,-2.3652,0,0,-2.3651,-2.3652,-2.3611,-2.3609,-2.3607,-2.362,-2.361,-2.3615,-2.3619,-2.3577,-2.3612,-2.3588,-2.3546,-2.3541,-2.3533,-2.3438,-2.3464,-2.343,-2.3373,-2.3342,-2.3331,-2.3321,-2.3289,-2.3277,-2.3422,-2.3422,-2.3422,0,-2.3593,-2.3557,-2.3585,-2.3553,-2.3545,-2.3589,-2.3547,-2.3543,-2.3533,-2.3526,-2.3552,-2.3503,-2.3501,-2.3446,-2.3424,-2.3415,-2.3405,-2.343,-2.333,-2.3321,-2.3312,-2.3282,-2.3269,-2.3418,-2.3419,-2.3419,-2.3419,0,-2.3487,-2.3461,-2.3427,-2.3421,-2.3409,-2.3371,-2.3394,-2.3378,-2.3398,-2.3408,-2.3365,-2.3365,-2.3347,-2.3335,-2.3352,-2.3283,-2.3297,-2.3326,-2.3372,-2.3294,-2.3266,-2.3254,-2.3412,-2.3414,-2.3415,-2.3416,0,0,-2.3343,-2.3356,-2.3343,-2.3342,-2.3345,-2.3325,-2.329,-2.3275,-2.3261,-2.3253,-2.3225,-2.3191,-2.3219,-2.321,-2.3227,-2.32,-2.3127,-2.3233,-2.3233,-2.3215,-2.3053,-2.3033,-2.3019,-2.3145,-2.3143,-2.3141,-2.3055,0,-2.325,-2.3194,-2.3221,-2.3161,-2.3138,-2.3181,-2.3151,-2.3149,-2.3158,-2.314,-2.3149,-2.3125,-2.3163,-2.3159,-2.3133,-2.3141,-2.3095,-2.3148,-2.3119,-2.3118,-2.3121,-2.3004,-2.2981,-2.2899,-2.3044,-2.3042,-2.304,0,-2.3133,-2.3125,-2.3065,-2.3075,-2.3066,-2.3039,-2.3029,-2.301,-2.3009,-2.3018,-2.301,-2.3034,-2.3001,-2.3046,-2.3001,-2.3036,-2.3026,-2.3028,-2.3026,-2.3024,-2.3075,-2.3001,-2.2873,-2.2861,-2.3023,-2.3024,-2.3026,0,-2.3037,-2.301,-2.2972,-2.2969,-2.2979,-2.296,-2.2962,-2.2964,-2.2954,-2.2945,-2.2939,-2.2924,-2.2916,-2.2903,-2.2924,-2.2955,-2.2876,-2.2922,-2.2882,-2.2882,-2.2864,-2.2865,-2.2734,-2.2855,-2.2855,-2.2855,-2.2856,0,-2.2931,-2.2893,-2.293,-2.2905,-2.2864,-2.2895,-2.2852,-2.286,-2.2861,-2.2839,-2.2874,-2.2852,-2.288,-2.286,-2.2876,-2.2837,-2.2832,-2.2838,-2.2843,-2.2836,-2.2836,-2.283,-2.2837,-2.2852,-2.2853,-2.2854,-2.2854,0,-2.2817,-2.2839,-2.2801,-2.2815,-2.2818,-2.2787,-2.2799,-2.2777,-2.279,-2.2762,-2.2757,-2.2776,-2.2756,-2.2775,-2.2754,-2.2765,-2.2714,-2.2726,-2.2715,-2.2719,-2.2679,-2.2683,-2.2541,-2.2525,-2.2655,-2.2653,-2.2652,0,-2.2748,-2.272,-2.2733,-2.2723,-2.2725,-2.2706,-2.2698,-2.2727,-2.2716,-2.2715,-2.2693,-2.2677,-2.2665,-2.263,-2.2641,-2.2626,-2.2639,-2.2591,-2.2637,-2.2632,-2.2641,-2.2643,-2.2641,-2.2581,-2.258,-2.2578,-2.2577,0,-2.2625,-2.2639,-2.2626,-2.2619,-2.2609,-2.2603,-2.26,-2.2588,-2.2619,-2.2605,-2.2587,-2.2578,-2.2559,-2.2542,-2.2532,-2.2533,-2.256,-2.2563,-2.2553,-2.2546,-2.2542,-2.2546,-2.2691,-2.2566,-2.2567,-2.2568,-2.2568,-2.2569,-2.2532,-2.2511,-2.2518,-2.2504,-2.2506,-2.2503,-2.2485,-2.2497,-2.2483,-2.2472,-2.249,-2.2467,-2.2469,-2.2458,-2.2457,-2.2439,-2.2459,-2.2444,-2.2441,-2.2437,-2.2432,-2.2545,-2.2436,-2.2437,-2.2437,-2.2437,-2.2437,0,-2.2412,-2.242,-2.2407,-2.2404,-2.2393,-2.2423,-2.2422,-2.241,-2.2391,-2.2391,-2.2381,-2.236,-2.2345,-2.2357,-2.2344,-2.2327,-2.234,-2.2323,-2.2325,-2.2325,-2.2414,-2.2424,-2.2314,-2.2314,-2.2314,-2.2314,-2.2314,-2.2314,-2.2349,-2.2316,-2.2331,-2.2299,-2.2306,-2.2287,-2.2284,-2.2282,-2.2283,-2.226,-2.2249,-2.2258,-2.2263,-2.2251,-2.2239,-2.2243,-2.2237,-2.2216,-2.2224,-2.2306,-2.2319,-2.233,-2.2341,-2.2214,-2.2214,-2.2138,-2.2137,-2.2137]}]]